| time (UTC) | temp F | wind direction | speed MPH | gust MPH | rain 1hr in | rain 24hr in | rain mn in | humidity % | barometer mb |
| 20260505023048 | 55 | 136 | 3.0 | 6.0 | 0.00 | 0.00 | 0.00 | 43 | 1008.2 |
| 20260505021547 | 56 | 136 | 2.0 | 4.0 | 0.00 | 0.00 | 0.00 | 43 | 1008.1 |
| 20260505020052 | 58 | 136 | 0.0 | 2.0 | 0.00 | 0.00 | 0.00 | 41 | 1008.1 |
| 20260505014602 | 60 | 0 | 0.0 | 2.0 | 0.00 | 0.00 | 0.00 | 42 | 1007.9 |
| 20260505013051 | 61 | 136 | 1.0 | 3.0 | 0.00 | 0.00 | 0.00 | 39 | 1007.8 |
| 20260505011551 | 64 | 136 | 0.0 | 2.0 | 0.00 | 0.00 | 0.00 | 29 | 1008.0 |
| 20260505010048 | 59 | 136 | 1.0 | 10.0 | 0.00 | 0.00 | 0.00 | 35 | 1008.2 |
| 20260505004556 | 58 | 136 | 3.0 | 8.0 | 0.00 | 0.00 | 0.00 | 37 | 1008.4 |
| 20260505003047 | 58 | 136 | 1.0 | 18.0 | 0.00 | 0.00 | 0.00 | 36 | 1008.8 |
| 20260505001548 | 58 | 136 | 7.0 | 18.0 | 0.00 | 0.00 | 0.00 | 40 | 1008.9 |
| 20260505000055 | 61 | 136 | 7.0 | 17.0 | 0.00 | 0.00 | 0.00 | 36 | 1008.7 |
| 20260504234546 | 61 | 136 | 2.0 | 3.0 | 0.00 | 0.00 | 0.00 | 36 | 1007.9 |
| 20260504233049 | 63 | 136 | 1.0 | 3.0 | 0.00 | 0.00 | 0.00 | 40 | 1007.9 |
| 20260504231547 | 65 | 136 | 0.0 | 3.0 | 0.00 | 0.00 | 0.00 | 26 | 1007.7 |
| 20260504230050 | 65 | 136 | 1.0 | 3.0 | 0.00 | 0.00 | 0.00 | 34 | 1007.6 |
| 20260504224551 | 65 | 136 | 0.0 | 7.0 | 0.00 | 0.00 | 0.00 | 28 | 1007.7 |
| 20260504223050 | 66 | 136 | 1.0 | 4.0 | 0.00 | 0.00 | 0.00 | 31 | 1007.8 |
| 20260504221549 | 67 | 136 | 3.0 | 4.0 | 0.00 | 0.00 | 0.00 | 26 | 1007.9 |
| 20260504220048 | 65 | 136 | 3.0 | 7.0 | 0.00 | 0.00 | 0.00 | 36 | 1008.2 |
| 20260504214554 | 64 | 136 | 3.0 | 4.0 | 0.00 | 0.00 | 0.00 | 29 | 1008.4 |
| 20260504213054 | 66 | 136 | 1.0 | 2.0 | 0.00 | 0.00 | 0.00 | 30 | 1008.6 |
| 20260504211550 | 62 | 0 | 0.0 | 0.0 | 0.00 | 0.00 | 0.00 | 31 | 1009.0 |
| 20260504210059 | 62 | 136 | 0.0 | 2.0 | 0.00 | 0.00 | 0.00 | 30 | 1009.1 |
| 20260504204606 | 62 | 136 | 0.0 | 3.0 | 0.00 | 0.00 | 0.00 | 33 | 1009.3 |
| 20260504203101 | 59 | 136 | 2.0 | 6.0 | 0.00 | 0.00 | 0.00 | 37 | 1009.6 |
| 20260504201541 | 59 | 136 | 0.0 | 4.0 | 0.00 | 0.00 | 0.00 | 42 | 1009.7 |
| 20260504200049 | 59 | 136 | 1.0 | 3.0 | 0.00 | 0.00 | 0.00 | 43 | 1009.7 |
| 20260504194549 | 62 | 136 | 2.0 | 7.0 | 0.00 | 0.00 | 0.00 | 33 | 1009.9 |
| 20260504193047 | 65 | 136 | 2.0 | 7.0 | 0.00 | 0.00 | 0.00 | 27 | 1010.0 |
| 20260504191547 | 64 | 136 | 1.0 | 4.0 | 0.00 | 0.00 | 0.00 | 32 | 1010.2 |
| 20260504190054 | 63 | 136 | 2.0 | 6.0 | 0.00 | 0.00 | 0.00 | 31 | 1010.4 |
| 20260504184549 | 61 | 136 | 0.0 | 4.0 | 0.00 | 0.01 | 0.00 | 35 | 1010.6 |
| 20260504183047 | 62 | 136 | 3.0 | 6.0 | 0.00 | 0.01 | 0.00 | 29 | 1010.8 |
| 20260504181547 | 60 | 136 | 0.0 | 3.0 | 0.00 | 0.01 | 0.00 | 37 | 1011.0 |
| 20260504180058 | 59 | 136 | 3.0 | 6.0 | 0.00 | 0.01 | 0.00 | 36 | 1011.1 |
| 20260504174550 | 60 | 136 | 2.0 | 4.0 | 0.00 | 0.01 | 0.00 | 33 | 1011.1 |
| 20260504173102 | 61 | 136 | 1.0 | 3.0 | 0.00 | 0.01 | 0.00 | 33 | 1011.3 |
| 20260504171551 | 0 | 0.0 | 0.0 | 0.00 | 0.01 | 0.00 | 1011.4 | ||
| 20260504081558 | 45 | 136 | 1.0 | 3.0 | 0.00 | 0.01 | 0.00 | 43 | 1012.3 |
| 20260504044545 | 51 | 136 | 4.0 | 7.0 | 0.00 | 0.01 | 0.01 | 32 | 1013.1 |
| 20260504043054 | 50 | 136 | 5.0 | 7.0 | 0.00 | 0.01 | 0.01 | 34 | 1013.1 |
| 20260504041545 | 50 | 136 | 5.0 | 8.0 | 0.00 | 0.01 | 0.01 | 34 | 1013.1 |
| 20260504040048 | 50 | 136 | 5.0 | 8.0 | 0.00 | 0.01 | 0.01 | 34 | 1013.1 |
| 20260504034556 | 54 | 136 | 1.0 | 4.0 | 0.00 | 0.01 | 0.01 | 30 | 1013.2 |
| 20260504033048 | 52 | 136 | 3.0 | 6.0 | 0.00 | 0.01 | 0.01 | 33 | 1013.2 |
| 20260504031546 | 55 | 136 | 1.0 | 3.0 | 0.00 | 0.01 | 0.01 | 28 | 1013.3 |
| 20260504030048 | 54 | 136 | 1.0 | 2.0 | 0.00 | 0.01 | 0.01 | 30 | 1013.2 |
| 20260504024555 | 56 | 136 | 1.0 | 2.0 | 0.00 | 0.01 | 0.01 | 31 | 1013.2 |